This demonstration page uses our WeatherBlox Daily Observations layout. Learn more.

Left ArrowRight Arrow

39.51506, -84.39828

Hourly Observations for July 31, 2020

Temp ( °F °C ) Dew Point ( °F °C ) Humidity (%) Winds ( mph kmh ) Pressure ( in mb ) Visibility ( mi km ) Precip ( " mm )
12:15 am 00:15 Cloudy 70 21.2 69 20.8 98 98 NNE 6 9 29.84 1011 10 16 0.01 0.25
12:35 am 00:35 Cloudy 70 21 69 20.5 97 97 NNE 7 11 29.84 1011 10 16 0.01 0.25
12:55 am 00:55 Cloudy 69 20.8 68 20.1 96 96 NE 8 13 29.82 1010 10 16 0.01 0.25
1:15 am 01:15 Partly Cloudy 69 20.4 67 19.6 95 95 NNE 8 13 29.81 1010 10 16 0.01 0.25
1:35 am 01:35 Partly Cloudy 68 20.2 67 19.4 95 95 NE 6 9 29.81 1010 10 16 0.01 0.25
1:55 am 01:55 Mostly Cloudy 68 20.2 67 19.5 96 96 NE 8 13 29.81 1010 10 16 0.01 0.25
2:15 am 02:15 Cloudy 69 20.5 67 19.5 94 94 NNE 6 9 29.81 1010 10 16 N/A
2:35 am 02:35 Cloudy 69 20.3 67 19.5 95 95 NNE 3 6 29.80 1009 10 16 0.01 0.25
2:55 am 02:55 Cloudy 68 20.2 67 19.6 96 96 N N/A 29.81 1010 10 16 0.01 0.25
3:15 am 03:15 Cloudy 69 20.3 67 19.5 95 95 NE 3 6 29.80 1009 10 16 N/A
3:35 am 03:35 Mostly Cloudy 69 20.3 67 19.5 95 95 N 3 6 29.81 1010 10 16 N/A
3:55 am 03:55 Cloudy with Mist and Fog 68 20.2 67 19.6 96 96 N N/A 29.81 1010 7 11 N/A
4:15 am 04:15 Cloudy 68 20.1 67 19.5 96 96 N 3 6 29.81 1010 10 16 N/A
4:35 am 04:35 Cloudy 68 20.2 67 19.4 95 95 NNE 6 9 29.81 1010 10 16 0.01 0.25
4:55 am 04:55 Cloudy 68 20.2 67 19.5 96 96 NNE 7 11 29.81 1010 10 16 0.01 0.25
5:15 am 05:15 Cloudy 68 20.2 67 19.5 96 96 NNE 5 7 29.81 1010 10 16 N/A
5:35 am 05:35 Cloudy 68 20.2 67 19.6 96 96 NE 5 7 29.82 1010 10 16 N/A
5:55 am 05:55 Cloudy 68 20.2 67 19.6 96 96 NNE 5 7 29.82 1010 10 16 N/A
6:15 am 06:15 Cloudy 68 20.2 67 19.6 96 96 NE 5 7 29.82 1010 10 16 N/A
6:30 am 06:30 Cloudy 68 20 67 19.5 97 97 NNE 6 9 29.83 1010 10 16 N/A
6:55 am 06:55 Sunny 68 19.8 67 19.2 96 96 NNE 7 11 29.84 1010 10 16 N/A
7:15 am 07:15 Sunny 68 19.9 66 19 95 95 NNE 5 7 29.84 1011 10 16 N/A
7:35 am 07:35 Sunny 69 20.3 66 18.9 92 92 NNE 6 9 29.85 1011 10 16 N/A
7:55 am 07:55 Sunny 69 20.6 66 19 91 91 NNE 5 7 29.86 1011 10 16 N/A
8:15 am 08:15 Mostly Cloudy 71 21.4 66 18.9 86 86 NE 3 6 29.86 1011 10 16 N/A
8:35 am 08:35 Mostly Cloudy 70 21.1 65 18.6 86 86 NE 3 6 29.87 1012 10 16 N/A
8:55 am 08:55 Partly Cloudy 72 22.1 66 19 83 83 NNE 7 11 29.87 1012 10 16 0.01 0.25
9:15 am 09:15 Mostly Cloudy 73 22.8 66 19 79 79 ENE 9 15 29.87 1011 10 16 N/A
9:35 am 09:35 Sunny 73 22.6 65 18.4 77 77 NE 12 19 29.88 1012 10 16 N/A
9:55 am 09:55 Cloudy 74 23.4 66 18.7 75 75 NE 8 13 29.88 1012 10 16 N/A
10:15 am 10:15 Cloudy 75 23.7 65 18.1 71 71 E 10 17 29.88 1012 10 16 N/A
10:35 am 10:35 Cloudy 75 24 65 18.4 71 71 ENE 7 11 29.89 1012 10 16 N/A
10:55 am 10:55 Cloudy 76 24.3 65 18.1 68 68 E 6 9 29.88 1012 10 16 N/A
11:15 am 11:15 Cloudy 77 24.8 65 18.2 67 67 ESE 9 15 29.88 1012 10 16 N/A
11:35 am 11:35 Cloudy 78 25.4 65 18.1 64 64 ENE 6 9 29.89 1012 10 16 N/A
11:55 am 11:55 Cloudy 78 25.8 65 18.5 64 64 E 3 6 29.88 1012 10 16 N/A
12:15 pm 12:15 Cloudy 78 25.5 65 18.4 65 65 N N/A 29.88 1012 10 16 N/A
12:35 pm 12:35 Sunny 80 26.7 67 19.6 65 65 E 6 9 29.88 1012 10 16 N/A
12:55 pm 12:55 Sunny 81 27.1 66 18.8 61 61 NE 8 13 29.87 1011 10 16 N/A
1:15 pm 13:15 Partly Cloudy 81 27 66 18.7 60 60 NE 8 13 29.88 1012 10 16 N/A
1:35 pm 13:35 Partly Cloudy 82 27.7 67 19.2 60 60 ENE 8 13 29.88 1012 10 16 N/A
1:55 pm 13:55 Partly Cloudy 82 27.7 65 18.4 57 57 NE 9 15 29.88 1012 10 16 N/A
2:15 pm 14:15 Cloudy 81 27.4 65 18.4 58 58 ENE 6 9 29.88 1012 10 16 N/A
2:35 pm 14:35 Mostly Cloudy 83 28.1 65 18.5 56 56 NNE 5 7 29.87 1011 10 16 N/A
2:55 pm 14:55 Mostly Cloudy 83 28.5 65 18.4 54 54 N 6 9 29.86 1011 10 16 N/A
3:15 pm 15:15 Sunny 83 28.4 65 18.6 55 55 ENE 7 11 29.86 1011 10 16 N/A
3:35 pm 15:35 Mostly Cloudy 84 28.9 65 18.1 52 52 ENE 6 9 29.84 1011 10 16 N/A
3:55 pm 15:55 Cloudy 82 27.6 64 17.6 54 54 N 6 9 29.85 1011 10 16 N/A
4:15 pm 16:15 Cloudy 81 27.4 65 18.5 58 58 N N/A 29.85 1011 10 16 N/A
4:35 pm 16:35 Cloudy 81 27.4 64 17.9 56 56 NE 6 9 29.85 1011 10 16 N/A
4:55 pm 16:55 Cloudy 81 27.2 65 18.6 59 59 NNE 5 7 29.85 1011 10 16 N/A
5:15 pm 17:15 Cloudy 81 27 64 18 58 58 NNE 7 11 29.85 1011 10 16 N/A
5:35 pm 17:35 Cloudy 81 27.1 65 18.5 59 59 NNE 7 11 29.84 1010 10 16 N/A
5:55 pm 17:55 Cloudy 81 27 65 18.5 60 60 NE 5 7 29.85 1011 10 16 N/A
6:15 pm 18:15 Cloudy 80 26.9 65 18.6 60 60 NNE 7 11 29.84 1010 10 16 N/A
6:35 pm 18:35 Cloudy 80 26.7 65 18.4 60 60 NE 7 11 29.84 1010 10 16 N/A
6:55 pm 18:55 Cloudy 80 26.4 66 18.9 63 63 N 5 7 29.85 1011 10 16 N/A
7:15 pm 19:15 Cloudy 80 26.5 66 18.9 63 63 NNE 6 9 29.85 1011 10 16 N/A
7:35 pm 19:35 Cloudy 79 26.2 66 18.9 64 64 NE 8 13 29.84 1011 10 16 N/A
7:55 pm 19:55 Cloudy 78 25.8 65 18.6 65 65 NNE 6 9 29.84 1011 10 16 N/A
8:15 pm 20:15 Cloudy 78 25.6 65 18.5 65 65 NNE 8 13 29.85 1011 10 16 N/A
8:35 pm 20:35 Cloudy 78 25.3 66 18.7 67 67 NNE 5 7 29.86 1011 10 16 N/A
8:55 pm 20:55 Cloudy 77 24.9 66 18.8 69 69 NNE 5 7 29.86 1011 10 16 N/A
9:15 pm 21:15 Cloudy 76 24.7 65 18.6 69 69 N 6 9 29.86 1011 10 16 N/A
9:35 pm 21:35 Cloudy 76 24.6 65 18.3 68 68 NNE 6 9 29.87 1012 10 16 N/A
9:55 pm 21:55 Cloudy 76 24.3 65 18.6 71 71 NNE 5 7 29.87 1012 10 16 N/A
10:15 pm 22:15 Mostly Cloudy 75 24 65 18.5 71 71 N N/A 29.89 1012 10 16 N/A
10:35 pm 22:35 Cloudy 74 23.6 66 19.1 76 76 NNE 3 6 29.89 1012 10 16 N/A
10:55 pm 22:55 Cloudy 74 23.6 66 18.9 75 75 NNE 3 6 29.89 1012 10 16 N/A
11:15 pm 23:15 Cloudy 74 23.6 65 18.3 72 72 N N/A 29.88 1012 10 16 N/A
11:35 pm 23:35 Cloudy 74 23.4 64 18 72 72 NNE 5 7 29.88 1012 10 16 N/A
11:55 pm 23:55 Cloudy 74 23.5 64 17.7 70 70 NE 5 7 29.87 1011 10 16 N/A

Powered by AerisWeather